This is the latest recevied weather packets stored in our database for station/object LU4EGV-13. If no packets are shown the sender has not sent any weather packets the latest 10 day(s).
| Time | Temp. | Humidity | Pressure | Rain* | Wind** | Luminosity | Snow |
|---|---|---|---|---|---|---|---|
| 1778087457 | 27.22° C | 71% | 1004.4 hPa | 0 mm | - | - | - |
| 1778086840 | 26.67° C | 76% | 1004.6 hPa | 0 mm | - | - | - |
| 1778086237 | 26.11° C | 82% | 1005 hPa | 0 mm | - | - | - |
| 1778085630 | 25.56° C | 89% | 1005.3 hPa | 0 mm | - | - | - |
| 1778085028 | 23.33° C | 92% | 1005.6 hPa | 0 mm | - | - | - |
| 1778084423 | 22.78° C | 90% | 1005.8 hPa | 0 mm | - | - | - |
| 1778083828 | 22.78° C | 91% | 1005.9 hPa | 0 mm | - | - | - |
| 1778083210 | 22.78° C | 91% | 1006.1 hPa | 0 mm | - | - | - |
| 1778082597 | 22.22° C | 91% | 1006.4 hPa | 0 mm | - | - | - |
| 1778081991 | 21.67° C | 92% | 1006.7 hPa | 0 mm | - | - | - |
| 1778081385 | 20.56° C | 93% | 1007 hPa | 0 mm | - | - | - |
| 1778080778 | 20.56° C | 92% | 1007.2 hPa | 0.25 mm | - | - | - |
| 1778080172 | 20.56° C | 92% | 1007.3 hPa | 0.25 mm | - | - | - |
| 1778079566 | 20.56° C | 92% | 1007.2 hPa | 0.25 mm | - | - | - |
| 1778078960 | 20.56° C | 91% | 1007.4 hPa | 0.25 mm | - | - | - |
| 1778078353 | 20.56° C | 90% | 1007.5 hPa | 0.25 mm | - | - | - |
| 1778077747 | 20.56° C | 90% | 1008 hPa | 0.25 mm | - | - | - |
| 1778077141 | 21.11° C | 88% | 1007.5 hPa | 0 mm | - | - | - |
| 1778076535 | 21.11° C | 88% | 1007.8 hPa | 0 mm | - | - | - |
| 1778075929 | 21.67° C | 89% | 1007.4 hPa | 0 mm | - | - | - |
| 1778075323 | 21.67° C | 90% | 1007.9 hPa | 0 mm | - | - | - |
| 1778074717 | 21.67° C | 91% | 1008 hPa | 0 mm | - | - | - |
| 1778074121 | 21.67° C | 92% | 1008.2 hPa | 0 mm | - | - | - |
| 1778073503 | 21.11° C | 92% | 1008.6 hPa | 0 mm | - | - | - |
| 1778072903 | 20.56° C | 93% | 1008.8 hPa | 0 mm | - | - | - |
* Rain latest hour (hover to see other rain measurements)
** Current wind speed in m/s (hover to see current wind gust speed)